Oscar 19 - Orbit

View from above orbital plane
View from above orbital plane
View from above satellite
View from above satellite

Ground track
Ground track

The orbit data is extracted from the following two-line orbital elements,

1 20442U 90005G   13140.03910639  .00000110  00000-0  56520-4 0  6841
2 20442 098.4388 082.5974 0011103 228.0070 186.1027 14.32383449218405
Epoch (UTC): 20 May 2013 00:56:18
Eccentricity: 0.0011103
inclination: 98.4388°
perigee height: 776 km
apogee height: 792 km
right ascension of ascending node: 82.5974°
argument of perigee: 228.0070°
revolutions per day: 14.32383449
mean anomaly at epoch: 186.1027°
orbit number at epoch: 21840

The dashed part of the orbit path shows where the satellite is in the earth's shadow,  

Developed and maintained by Chris Peat, Heavens-Above GmbH. Please read the updated FAQ before sending e-mail. Imprint. DLR